Tracking 30970 objects as of 3-Jul-2025
HD Live streaming from Space Station
objects crossing your sky now

STARLINK-33584

Track STARLINK-33584 now!
10-day predictions
STARLINK-33584 is classified as:


NORAD ID: 62761
Int'l Code: 2025-015D
Perigee: 481.6 km
Apogee: 483.0 km
Inclination: 53.2 °
Period: 94.1 minutes
Semi major axis: 6853 km
RCS: Unknown
Launch date: January 21, 2025
Source: United States (US)
Launch site: AIR FORCE WESTERN TEST RANGE (AFWTR)
Your satellite tracking list
Your tracking list is empty




NASA's NSSDC Master Catalog

Two Line Element Set (TLE):
1 62761U 25015D   25183.86984223  .00015924  00000-0  54844-3 0  9995
2 62761  53.1605  42.7720 0001038  89.1927 270.9193 15.30210818 26237
Source of the keplerian elements: AFSPC